Tracking 25707 objects as of 29-Jun-2022
HD Live streaming from Space Station
objects crossing your sky now

DELTA 1 DEB

Track DELTA 1 DEB now!
10-day predictions


NORAD ID: 12217
Int'l Code: 1978-026BJ
Perigee: 816.4 km
Apogee: 847.2 km
Inclination: 98.9 °
Period: 101.4 minutes
Semi major axis: 7202 km
RCS: 0.0277 m2 (small)
Launch date: March 5, 1978
Source: United States (US)
Launch site: AIR FORCE WESTERN TEST RANGE (AFWTR)

Note: This is SATELLITE DEBRIS
aabbcc
Your satellite tracking list
Your tracking list is empty




NASA's NSSDC Master Catalog

Two Line Element Set (TLE):
1 12217U 78026BJ  22179.89159296  .00000388  00000-0  20266-3 0  9994
2 12217  98.9111 162.0733 0021408 349.5576  69.2648 14.20202448134392
Source of the keplerian elements: AFSPC